Tracking 27122 objects as of 26-Mar-2023
HD Live streaming from Space Station
objects crossing your sky now

DMSP 5D-2 F11 DEB

Track DMSP 5D-2 F11 DEB now!
10-day predictions


NORAD ID: 28330
Int'l Code: 1991-082AT
Perigee: 765.3 km
Apogee: 890.7 km
Inclination: 99.0 °
Period: 101.3 minutes
Semi major axis: 7199 km
RCS: 0.0098 m2 (small)
Launch date: November 28, 1991
Source: United States (US)
Launch site: AIR FORCE WESTERN TEST RANGE (AFWTR)

Note: This is SATELLITE DEBRIS
Your satellite tracking list
Your tracking list is empty




NASA's NSSDC Master Catalog

Two Line Element Set (TLE):
1 28330U 91082AT  23084.82705515  .00007782  00000-0  34508-2 0  9992
2 28330  99.0038 111.3985 0087087 317.9602  41.4913 14.21318548971784
Source of the keplerian elements: AFSPC